Theta_e
311 310 310 310 310 310 310 310 311 311 311 311 311 312 313 314 315 314 315 316 317 317 316 316 316 316 317 319 320 319 314 315 318 320 320 318 317 318 318 317 318 318 318 318 318
309 310 310 311 311 311 312 312 311 311 311 310 310 310 311 312 313 314 315 315 316 316 316 316 318 317 318 320 320 319 315 317 318 318 318 317 317 317 317 316 316 317 317 317 317
311 311 311 312 312 312 313 313 313 313 313 313 312 310 310 311 312 314 317 317 316 315 316 315 318 318 318 319 320 318 315 317 319 319 318 317 317 317 316 313 316 317 317 317 316
312 312 312 312 312 312 312 313 313 313 313 313 313 312 311 310 310 318 316 315 317 315 315 315 317 318 317 317 320 318 318 319 319 319 318 316 316 317 316 317 318 318 318 317 317
312 312 312 312 312 312 312 313 313 313 313 313 313 312 311 311 312 313 314 315 315 315 315 314 317 318 317 319 319 317 317 319 319 318 318 317 316 314 316 317 318 317 317 317 317
313 313 313 313 313 313 313 314 314 314 314 314 313 312 310 313 313 314 315 314 314 314 314 313 315 317 318 318 317 317 317 317 317 318 317 315 314 316 317 317 317 317 317 317 317
308 308 308 309 310 312 313 314 314 314 314 314 313 311 310 313 314 314 314 313 313 314 313 313 313 316 317 318 318 317 316 312 314 316 314 316 313 313 318 316 317 318 317 317 317
312 312 312 311 310 308 308 308 309 312 313 314 313 310 311 314 314 314 314 314 313 313 312 312 314 314 316 317 316 315 314 314 315 314 315 316 315 314 318 316 316 317 317 318 317
313 313 313 313 313 313 312 311 309 308 308 310 311 310 312 314 314 315 315 314 313 313 312 312 313 313 316 313 313 312 313 313 314 314 313 313 314 313 317 316 316 317 317 318 318
312 311 311 311 311 312 313 314 313 310 308 310 312 315 314 315 314 314 314 313 313 312 311 311 313 312 312 311 313 312 313 313 313 314 313 312 313 313 316 315 315 317 317 317 317
316 315 313 313 310 310 311 312 311 313 312 313 314 313 315 315 314 314 314 312 312 312 311 312 311 312 311 313 312 312 312 311 313 314 315 314 315 314 314 313 312 315 316 317 317
320 320 321 320 318 309 310 309 309 310 308 309 309 310 312 314 315 314 313 312 312 312 312 313 313 312 312 311 313 313 313 312 313 312 312 312 313 314 311 313 315 314 315 316 317
323 322 323 322 320 316 310 309 307 306 310 308 310 309 310 310 313 314 313 312 310 310 311 312 312 313 314 314 314 313 312 313 312 312 311 311 311 312 311 313 315 316 317 316 316
322 323 323 323 321 321 314 308 308 309 304 308 310 311 311 312 311 312 312 313 310 311 310 311 312 312 312 313 313 314 311 312 313 313 313 311 314 311 312 311 311 313 315 317 316
325 323 323 323 322 322 316 308 309 308 307 310 310 311 312 310 309 311 311 311 310 311 311 312 313 311 312 313 311 314 312 311 313 312 312 314 314 314 312 311 311 311 315 316 317
325 325 323 323 323 322 321 308 309 305 307 309 310 310 310 311 310 309 310 310 310 310 309 309 311 312 311 310 311 310 312 311 310 309 313 312 313 312 310 312 311 312 314 316 317
324 324 324 322 321 321 322 310 314 309 308 311 310 311 311 311 310 308 308 308 308 310 308 309 309 309 310 312 309 310 311 312 311 310 314 310 311 314 311 310 310 311 315 317 317
320 322 323 321 322 321 316 312 319 316 312 312 311 310 311 310 312 309 309 308 306 308 309 310 311 309 308 311 310 308 312 311 310 312 313 308 311 311 311 312 314 315 317 316 313
317 318 320 320 320 319 312 315 322 319 316 318 317 312 311 310 310 310 308 308 308 307 310 310 310 309 308 309 310 310 311 311 313 298 308 313 310 310 310 309 307 308 310 311 313
314 315 315 316 319 316 311 319 319 317 317 314 319 316 315 312 311 312 310 309 310 308 310 311 312 310 307 307 308 309 308 311 310 311 310 313 311 313 311 311 310 308 306 310 312
310 313 315 316 318 312 312 313 314 316 317 317 319 317 315 316 310 310 311 310 309 310 310 309 311 312 306 307 309 307 309 309 309 311 315 314 313 310 308 308 310 308 310 310 311
309 313 315 316 313 311 315 313 314 314 314 315 309 313 317 318 319 319 319 314 312 310 312 310 311 313 311 308 306 308 310 311 312 312 310 312 313 313 310 307 308 309 311 311 311
308 311 313 314 315 315 311 312 313 314 314 314 315 313 314 314 316 315 314 315 316 314 312 312 311 315 313 312 306 307 307 308 310 310 313 313 313 312 311 307 308 307 310 310 310
304 308 310 309 312 313 314 314 313 313 313 313 314 314 315 316 315 316 315 312 313 310 311 311 310 313 317 315 312 311 309 308 310 311 312 311 312 311 311 311 311 312 312 312 311
300 303 307 306 310 310 312 312 313 312 312 312 313 313 314 316 316 316 314 314 311 310 311 312 313 312 312 312 313 313 313 312 312 312 314 313 312 310 310 310 310 310 310 310 310
299 300 301 300 302 306 307 309 310 310 309 310 310 306 305 309 312 313 312 313 313 309 310 310 314 314 314 312 312 313 312 312 313 312 312 312 313 312 312 312 312 313 312 310 310
296 297 298 298 298 300 300 303 305 304 304 304 302 303 302 303 304 303 302 302 304 308 311 312 311 314 315 312 312 313 313 313 312 312 312 313 312 311 311 311 311 312 311 311 311
Wind_Speed
8 8 8 8 8 8 8 8 8 9 10 10 10 10 9 9 11 13 13 8 4 5 5 3 2 2 4 3 7 2 2 3 5 3 2 9 5 5 5 5 9 14 10 9 9
8 8 8 8 8 8 9 9 9 9 10 10 10 10 11 11 13 17 14 12 9 8 7 4 2 2 3 4 5 4 3 6 4 3 2 4 7 9 6 8 10 14 19 19 16
10 10 10 10 10 9 9 9 9 10 11 11 12 11 11 12 15 7 3 12 15 11 10 7 6 7 5 6 7 5 6 4 5 6 5 3 4 8 9 7 17 24 29 25 25
13 13 12 12 12 12 11 11 11 11 12 12 12 12 11 10 5 2 5 6 13 15 13 9 8 6 4 5 13 5 13 19 13 11 5 3 7 6 19 24 11 16 22 29 30
16 16 15 15 14 14 14 13 13 13 12 13 13 13 13 9 17 20 17 12 10 17 16 12 11 7 4 5 5 7 7 17 18 13 15 13 19 12 21 25 26 28 23 22 31
20 20 18 17 18 17 16 17 16 16 15 15 15 15 13 10 15 13 12 13 13 17 18 17 9 11 8 8 4 4 7 14 15 22 16 10 9 8 22 25 27 31 31 34 34
18 20 21 21 21 21 21 20 20 19 18 17 16 14 17 26 22 19 16 16 15 17 19 18 17 12 2 4 8 6 7 9 14 23 8 12 10 14 39 29 22 25 32 37 37
18 18 19 19 20 20 20 21 23 23 21 20 18 13 13 19 20 21 23 22 17 18 19 18 16 14 10 6 3 3 1 4 3 7 5 13 16 13 20 22 30 33 31 30 36
16 17 19 19 20 21 20 19 20 21 21 21 15 9 10 15 18 19 20 19 15 18 18 18 14 10 5 3 4 4 6 8 10 12 6 6 11 10 15 22 30 31 33 35 34
14 14 16 18 18 19 20 19 19 19 19 13 10 5 16 12 11 12 13 16 11 11 8 8 9 3 1 4 9 8 7 7 10 3 4 7 16 17 23 13 17 26 28 30 36
13 12 11 14 15 16 17 14 7 4 7 10 6 11 7 11 14 11 12 14 8 8 7 9 4 10 23 16 9 5 7 7 16 9 7 15 18 20 26 24 26 37 42 42 46
13 14 13 15 15 13 13 6 6 8 12 20 27 29 28 28 13 17 14 13 10 7 5 3 13 18 6 7 12 11 15 14 12 13 10 12 19 18 10 19 28 30 38 46 50
13 14 16 15 13 14 13 11 10 11 6 10 29 25 35 28 21 22 21 13 7 6 10 18 8 17 14 12 9 18 12 20 18 11 6 9 12 12 12 23 28 38 45 48 48
14 14 16 13 6 13 8 11 9 9 3 7 5 5 11 10 5 18 23 18 6 14 8 11 15 13 7 8 14 23 10 11 8 3 14 5 20 9 7 14 13 30 40 46 43
17 15 16 15 11 10 10 8 7 5 7 5 3 4 8 9 3 3 19 10 5 3 5 9 3 8 14 24 10 23 6 9 2 5 5 5 8 4 9 9 11 16 35 45 44
18 17 17 18 14 8 8 6 3 4 8 4 3 3 3 2 1 2 3 4 2 3 6 11 1 4 7 2 6 2 1 0 2 2 13 9 10 4 7 11 7 15 32 40 38
19 17 20 20 13 8 3 3 3 5 6 4 4 4 1 4 3 5 5 5 5 1 5 4 14 9 6 4 2 3 5 4 4 0 12 12 11 23 7 6 11 14 30 35 36
15 17 18 14 19 17 5 4 9 7 9 3 1 5 8 8 7 7 5 4 7 3 3 3 14 11 8 20 10 10 13 6 8 8 18 5 9 6 12 15 27 35 35 33 28
17 18 20 20 17 19 12 4 6 6 7 3 8 5 6 6 7 6 8 7 9 17 10 6 10 1 3 1 10 4 6 13 2 2 3 11 14 9 4 10 9 21 24 24 26
21 20 25 18 15 22 3 15 8 8 0 3 10 8 7 3 2 5 7 4 6 15 21 7 12 7 1 1 2 5 0 2 2 4 8 16 13 17 15 18 17 8 14 27 24
16 9 9 9 17 14 6 8 5 12 13 6 11 9 7 5 5 5 9 8 5 2 7 5 6 19 4 7 9 1 4 5 2 4 15 19 17 4 10 9 9 9 22 22 20
9 4 13 17 7 5 11 5 7 13 12 9 4 8 13 15 15 18 24 21 16 5 2 4 3 4 13 8 7 6 11 14 10 12 5 9 15 28 16 8 7 6 11 18 17
6 10 16 19 8 10 5 7 12 18 16 5 9 10 12 17 11 15 16 29 32 18 6 7 4 5 4 14 5 6 8 7 8 1 15 17 18 26 17 14 7 11 18 11 13
4 3 10 18 21 13 16 18 17 23 21 28 22 14 13 16 17 13 17 12 21 14 18 16 9 12 15 16 7 11 12 7 11 13 23 21 29 29 32 29 28 34 40 47 42
7 4 4 3 11 14 11 7 14 7 13 19 8 26 27 26 26 25 24 26 18 11 9 10 11 19 28 33 32 30 32 32 25 27 23 28 20 26 34 24 26 37 37 30 31
4 2 7 9 10 3 3 9 12 11 7 14 18 8 10 13 19 24 24 20 21 6 21 10 17 18 20 23 28 32 32 32 31 30 26 29 31 37 40 50 41 50 44 27 32
5 12 7 8 3 1 5 7 7 9 7 3 15 14 16 16 19 29 36 30 21 17 16 17 10 16 29 22 23 21 32 35 35 28 25 27 34 36 33 29 31 41 32 30 37
Wind_Direction
331 337 340 344 347 351 353 353 353 352 351 350 347 340 325 306 282 279 272 256 256 253 265 259 239 165 181 231 226 252 52 252 260 260 213 164 160 188 224 219 200 203 232 231 218
318 322 328 332 336 339 342 343 342 340 339 338 335 333 324 314 300 280 267 261 253 251 249 243 156 164 211 229 204 169 159 235 221 294 289 217 194 193 202 222 227 225 234 241 234
309 312 316 318 320 323 325 327 329 329 329 329 328 327 323 316 305 283 317 245 238 243 242 240 204 207 231 223 203 201 214 215 290 314 316 284 250 229 200 239 226 230 234 236 238
299 302 305 307 310 312 314 316 317 319 320 318 317 317 313 305 282 238 312 327 237 236 232 224 195 184 223 218 216 226 242 255 276 280 267 262 274 246 229 240 258 253 253 244 235
295 296 299 302 304 306 308 308 308 309 310 310 309 308 301 270 263 284 283 285 253 228 228 221 201 209 225 237 282 218 253 261 272 276 258 251 257 255 263 258 255 251 257 244 243
295 296 297 298 298 299 301 302 304 305 305 305 305 305 286 248 281 279 270 268 250 232 226 218 215 222 262 252 226 253 265 272 277 269 255 209 259 241 267 269 259 246 246 251 250
297 298 299 299 295 293 294 295 297 298 299 299 297 294 272 270 275 271 268 264 250 239 234 229 227 226 220 279 256 279 310 307 258 255 224 198 286 226 266 258 254 249 244 244 249
299 302 302 304 304 302 301 299 293 293 294 296 293 279 256 275 266 257 258 257 245 233 232 231 232 241 241 257 295 245 203 282 263 170 190 152 264 247 263 248 245 243 245 242 246
304 305 306 307 306 303 302 301 301 295 290 286 281 240 261 256 250 256 253 251 244 233 229 231 222 216 223 134 339 247 239 218 296 190 150 174 247 272 265 238 243 246 244 242 250
324 322 321 325 317 309 307 304 300 296 280 274 230 232 240 244 248 253 241 231 225 213 215 196 192 179 226 134 224 214 225 250 235 205 151 195 244 261 259 259 241 244 249 246 250
333 337 343 347 338 328 317 323 308 290 236 218 193 221 289 252 263 253 235 210 193 188 192 201 155 204 223 206 234 222 258 252 266 260 188 233 241 252 256 257 249 256 259 261 263
324 330 337 354 353 347 338 354 316 286 299 259 255 253 252 258 249 243 220 189 188 211 176 251 221 226 244 206 232 245 257 262 271 260 189 249 245 257 242 248 248 246 254 259 265
311 319 323 349 356 2 356 356 326 299 261 272 254 246 244 239 237 239 214 207 200 209 210 222 219 219 224 239 262 248 252 261 262 292 248 286 271 241 242 242 250 256 260 263 262
295 304 310 338 340 352 355 343 335 324 296 268 229 228 206 187 276 228 231 221 214 226 209 245 237 232 193 216 206 258 219 248 254 255 272 144 291 220 245 242 238 247 254 260 262
281 287 298 309 320 346 339 338 326 339 303 264 202 205 177 180 135 201 197 207 230 221 145 239 221 207 234 237 201 263 224 241 211 236 318 194 277 178 197 241 244 243 248 257 267
271 268 274 281 289 307 349 348 338 43 259 279 162 182 130 296 128 62 138 200 37 293 252 246 232 240 213 149 196 167 140 184 53 81 264 180 205 189 189 215 230 242 253 263 262
282 260 254 258 265 252 276 71 328 206 301 245 225 158 226 199 232 170 162 164 185 258 254 310 230 220 161 192 274 169 88 300 310 3 256 180 218 250 287 255 212 227 243 247 244
293 280 268 251 256 248 187 78 232 203 222 339 201 157 185 169 234 185 167 227 236 194 291 241 284 164 185 206 194 200 202 182 214 254 275 133 246 252 215 237 240 242 243 237 243
279 281 267 277 260 233 172 198 244 191 215 278 332 269 224 226 209 149 205 209 210 188 198 215 263 289 156 145 160 182 171 217 325 85 356 268 271 290 283 267 259 240 238 237 236
271 271 271 274 246 207 166 241 221 208 210 7 267 227 256 270 179 187 195 208 235 187 207 232 265 226 170 165 344 184 224 104 212 204 246 268 271 274 284 271 256 274 230 244 231
269 261 243 211 200 175 211 232 253 239 244 232 247 252 246 266 230 253 223 296 244 122 179 8 292 273 109 194 182 129 259 246 295 203 250 261 271 219 254 249 253 245 245 230 220
223 239 195 194 178 206 231 230 236 250 232 253 262 250 252 265 261 256 256 236 226 130 178 145 201 257 275 278 234 258 236 232 239 255 237 271 264 262 273 280 261 333 285 260 239
231 235 210 208 229 227 226 246 247 259 247 217 238 225 242 249 257 243 250 257 255 250 213 152 210 234 264 289 248 211 200 217 243 247 245 257 262 269 283 281 285 293 262 248 256
245 251 203 226 232 247 252 250 247 246 252 251 253 248 249 242 245 256 248 260 241 227 210 168 196 207 241 244 271 266 272 251 238 252 254 245 260 271 269 265 274 274 261 265 274
214 253 270 230 235 238 238 252 263 281 258 269 235 233 244 254 250 248 247 255 248 228 196 192 237 226 235 242 245 246 254 256 251 245 245 253 247 257 264 275 270 272 267 265 268
254 295 326 301 314 275 220 253 261 285 268 274 270 329 357 303 291 282 288 267 241 238 219 208 243 242 238 229 234 244 252 255 255 254 253 253 262 260 262 263 265 268 269 274 266
236 266 275 273 312 326 259 274 281 309 244 261 329 316 303 302 300 301 295 281 267 295 277 235 225 231 250 231 236 243 235 239 247 247 243 246 241 250 261 260 263 274 287 270 265